Overview Statistics Trail Chart Weather Telemetry Raw packets
 

This is the latest recevied weather packets stored in our database for station/object DL4SAV. If no packets are shown the sender has not sent any weather packets the latest 10 day(s).

<< 90 91 92 93 94 95 96 >>
Time Temp. Humidity Pressure Rain* Wind** Luminosity Snow
1787937800 17.78° C 85% 1014.5 hPa 1.52 mm - - -
1787937500 17.78° C 85% 1014.4 hPa 1.52 mm - - -
1787937200 18.33° C 86% 1014.5 hPa 1.02 mm - - -
1787936900 18.33° C 87% 1014.6 hPa 1.02 mm - - -
1787936599 18.33° C 87% 1014.3 hPa 1.02 mm - - -
1787936299 18.89° C 87% 1014.4 hPa 1.02 mm - - -
1787935999 18.89° C 86% 1014.4 hPa 0.51 mm - - -
1787935699 18.89° C 86% 1014.4 hPa 0.51 mm - - -
1787935398 18.89° C 85% 1014.5 hPa 0.51 mm - - -
1787935098 19.44° C 85% 1014.3 hPa 0.51 mm - - -
1787934798 19.44° C 85% 1014.2 hPa 0 mm - - -
1787934497 19.44° C 84% 1013.8 hPa 0 mm - - -
1787934197 20° C 84% 1013.8 hPa 0 mm - - -
1787933897 20° C 84% 1013.8 hPa 0 mm - - -
1787933597 20° C 84% 1013.7 hPa 0 mm - - -
1787933296 20° C 84% 1013.6 hPa 0 mm - - -
1787932996 20° C 84% 1013.7 hPa 0 mm - - -
1787932696 20° C 84% 1013.7 hPa 0 mm - - -
1787932395 20.56° C 83% 1013.8 hPa 0 mm - - -
1787932095 20.56° C 84% 1013.7 hPa 0 mm - - -
1787931795 20.56° C 84% 1013.9 hPa 0 mm - - -
1787931501 20.56° C 84% 1013.8 hPa 0 mm - - -
1787931194 20.56° C 84% 1014 hPa 0.51 mm - - -
1787930894 20.56° C 85% 1014 hPa 0.51 mm - - -
1787930594 20° C 85% 1014 hPa 0.51 mm - - -

* Rain latest hour (hover to see other rain measurements)
** Current wind speed in m/s (hover to see current wind gust speed)